Regional Weather Roundup
Issued by NWS Cleveland, OH

Home | Current Version | Previous Version | Text Only | Print | Product List | Glossary On
Versions: 1 2 3 4 5 6 7 8 9 10 11 12 13 14 15 16 17 18 19 20 21 22 23 24 25 26 27 28 29 30 31 32 33 34 35 36 37 38 39 40 41 42 43 44 45 46 47 48 49 50
815
ASUS41 KCLE 190902
RWRCLE
OHIO REGIONAL WEATHER ROUNDUP
NATIONAL WEATHER SERVICE CLEVELAND, OH
400 AM EST FRI JAN 19 2018

NOTE: "FAIR" INDICATES FEW OR NO CLOUDS BELOW 12,000 FEET WITH NO
SIGNIFICANT WEATHER AND/OR OBSTRUCTIONS TO VISIBILITY.

OHZ001>008-015>018-024>027-034-035-043-044-191000-
   NORTHWEST OHIO

CITY           SKY/WX    TMP DP  RH WIND       PRES   REMARKS
DEFIANCE       FAIR      23  12  62 SW12      30.02S WCI  12
FINDLAY        FAIR      25  12  58 SW13      30.03F WCI  14
TOLEDO EXPRESS FAIR      24  15  68 SW15G21   29.99F WCI  11
TOLEDO EXEC    FAIR      23  13  65 SW16      30.01F WCI  10
LIMA           FAIR      23  13  65 SW16      30.05F WCI  10
$$

OHZ009>014-019>023-028>033-038-089-191000-
   NORTHEAST OHIO

CITY           SKY/WX    TMP DP  RH WIND       PRES   REMARKS
CLE-HOPKINS    FAIR      28  13  53 SW16G26   30.05F WCI  16
CLE-LAKEFRONT  FAIR      26  12  55 S13       30.03S WCI  15
CUY CO. ARPT   NOT AVBL
LORAIN-ELYRIA  FAIR      25   9  50 SW18G29   30.03F WCI  11
ASHTABULA      FAIR      23  11  60 S12       30.02S WCI  12
AKRON-CANTON   FAIR      20   9  62 SW15      30.06S WCI   6
WOOSTER        FAIR      20  10  65 SW12      30.06F WCI   8
MANSFIELD      FAIR      22  11  62 SW15G24   30.04F WCI   9
YOUNGSTOWN     FAIR      21  10  62 SW10      30.03F WCI  10
$$

OHZ042-051>053-060>062-070>072-077>081-191000-
  SOUTHWEST OHIO

CITY           SKY/WX    TMP DP  RH WIND       PRES   REMARKS
CINC-COVINGTON FAIR      21  13  71 SW7       30.18R WCI  12
CINC-LUNKEN    FAIR      23  12  62 SW8       30.23R WCI  14
HAMILTON       FAIR      23  12  62 SW5       30.19S WCI  17
DAYTON         FAIR      20  12  71 SW13      30.12F WCI   7
WRIGHT-PAT AFB FAIR      21   7  53 S15       30.13F WCI   8
DAYTON GENERAL FAIR      22  11  62 SW8       30.14S WCI  12
WILMINGTON     FAIR      17  10  74 SW12      30.15R WCI   4
$$

OHZ036-037-039>041-045>050-054>059-063>069-073>076-082>088-191000-
  CENTRAL AND SOUTHEAST OHIO

CITY           SKY/WX    TMP DP  RH WIND       PRES   REMARKS
COLUMBUS       FAIR      19  10  68 S6        30.15S WCI  11
OSU AIRPORT    FAIR      19  11  70 SW9       30.13F WCI   8
BOLTON FIELD   FAIR      19  11  70 SW12      30.15S WCI   6
RICKENBACK AFB FAIR      19  10  69 S9        30.16F WCI   7
NEWARK         FAIR      22  10  60 SW9       30.14S WCI  12
MARION         FAIR      17   9  70 S9        30.08F WCI   6
LANCASTER      FAIR      22  10  60 SW9       30.16R WCI  12
ZANESVILLE     FAIR      18   8  65 S6        30.15S WCI  10
NEW PHILLY     NOT AVBL
$$




USA.gov is the U.S. government's official web portal to all federal, state and local government web resources and services.